Location: ???? ?????????
(44.3677°N, 135.2344°E)
Time: 05:59:35
(UTC+00:00)

Cosmos 864 Rocket - Pass Details

Date: 19 May 2025
Orbit: 953 x 989 km, 82.9° (Epoch: 15 June)

Event Time Altitude Azimuth Distance (km) Brightness Sun altitude
Rises 12:37:38 0° 351° (N) 3,688 8.7 -18.4°
Reaches altitude 10° 12:40:08 10° 351° (N) 2,741 7.8 -18.7°
Maximum altitude 12:46:26 87° 266° (W) 993 4.5 -19.3°
Enters shadow 12:49:52 29° 176° (S) 1,707 5.3 -19.6°
